Find Starlink 30401

NORAD ID: 57818 Int'l Des: 2023-138 Owner: SPXS Country: US Constellation: starlink operational
LEOCIRCULAR

リアルタイム位置

3D地球を読み込み中...

Starlink 30401について

説明を読み込み中...

次回通過

Passes for default location (London). Set your location on the main map for personalized predictions.

高度履歴

Loading altitude history...

軌道要素

1 57818U 23138L 26125.76661444 -.00001883 00000-0 -58926-4 0 9996
2 57818 42.9976 272.1636 0000514 272.5236 87.5557 15.27585668147363
Epoch: May 5, 2026 • Age: 20 hours

現在のステータス

高度 494.3 km
速度 7.62 km/s
衛星直下点 -38.97°S, 125.74°E
打ち上げ日 Sep 9, 2023
運用期間 2.6 years
タイプ internet

技術仕様

分類 Payload
質量 730.00 kg
乾燥質量 700.00 kg
総質量 730.00 kg
長さ 0.30 m
直径 4.10 m
スパン 29.00 m
形状 Box + pan
製造者 SPXS
バスタイプ Starlink V2M
フェーズステータス In Orbit
所有者/国 SPXS/US

Most Searched